Wind_Speed
19 22 22 20 18 15 14 14 14 14 14 14 13 12 12 12 12 12 13 15 15 14 10 7 7 5 5 6 5 4 4 4 4 5 6 7 7 8 9 9 10 10 10 10 10 10 10 9 8 8 7 6 5 5 4 3 3 3 4 7 9 8 9 9 8 8 8 7 7 7 8 9 9 8 7 8 10 11 11 12 13 12 11 10 10
20 22 22 20 17 14 14 14 14 13 12 11 10 10 10 9 10 11 13 14 14 13 7 10 10 7 7 7 6 6 5 5 5 5 6 6 6 6 7 8 9 9 9 9 8 8 7 6 5 4 3 2 1 1 2 3 5 5 6 7 8 9 10 10 10 9 8 7 8 8 8 10 12 12 10 11 13 15 16 15 15 15 13 12 11
20 20 19 18 15 13 12 11 11 10 8 8 8 8 8 8 8 9 11 11 12 11 6 13 12 9 9 9 8 8 7 7 6 6 6 6 6 5 5 6 7 7 6 6 5 4 4 3 2 1 2 3 3 3 4 6 8 8 7 6 6 7 8 9 11 11 11 11 11 11 9 9 13 15 14 13 14 14 15 15 17 19 17 16 16
20 20 18 16 15 13 11 10 9 7 6 7 8 7 7 7 8 8 10 9 9 6 6 14 13 11 11 11 10 9 9 8 7 7 7 7 6 5 5 6 5 4 4 3 3 3 3 4 4 4 5 5 6 6 6 9 10 9 9 10 9 8 8 9 11 11 12 13 13 14 13 12 15 17 17 17 16 15 15 17 21 23 23 24 24
21 20 19 17 16 14 11 10 8 7 8 8 8 8 7 7 7 8 8 7 6 3 8 13 12 11 12 12 12 11 10 9 9 9 9 8 7 6 7 7 5 5 6 6 6 7 7 7 7 7 8 8 8 8 7 9 11 10 10 12 12 10 9 10 11 11 12 13 13 14 15 14 15 15 16 20 21 19 20 22 25 26 26 27 28
19 19 17 16 15 13 11 10 9 9 10 9 8 8 7 7 7 7 6 6 6 5 9 12 12 12 13 14 14 13 12 12 12 12 11 11 10 9 9 10 9 9 10 9 10 11 11 12 11 11 11 11 11 11 9 9 10 11 10 11 14 13 8 8 11 12 12 12 13 14 15 15 15 14 16 20 23 23 23 25 27 27 26 26 27
20 20 18 15 14 13 12 11 12 11 10 9 9 8 7 7 7 6 6 6 7 8 10 12 13 14 16 17 17 16 16 16 16 15 14 14 14 13 13 12 13 13 13 13 14 14 14 14 14 13 14 14 14 14 13 11 11 12 11 11 14 15 11 9 10 12 12 12 14 15 16 17 19 19 20 21 23 25 26 27 27 28 27 27 27
22 21 19 17 15 13 12 12 12 12 10 9 9 8 8 7 7 7 6 6 8 10 12 13 14 16 17 18 19 20 19 19 20 19 18 18 18 17 16 15 16 17 17 18 19 18 16 16 16 17 17 17 16 15 14 14 13 14 13 13 14 14 13 11 11 11 12 12 15 16 17 19 20 22 25 25 26 28 29 29 29 29 29 28 28
21 21 20 18 16 14 13 14 13 12 11 9 8 8 8 7 8 8 8 7 9 11 13 15 16 18 20 20 22 23 22 23 23 22 22 22 21 20 19 19 20 21 21 22 22 21 19 19 19 20 20 19 19 18 17 16 16 17 17 15 14 13 13 12 12 13 13 13 15 17 18 19 21 23 26 28 29 29 29 29 30 30 30 30 28
21 22 19 16 15 15 14 14 14 12 11 10 9 9 9 9 9 10 9 9 10 12 14 16 18 20 22 23 24 25 26 26 26 26 26 25 25 24 23 24 25 25 24 25 25 25 24 23 22 22 23 23 23 22 21 20 19 19 19 16 14 14 14 13 14 15 15 15 16 18 19 20 21 23 25 27 28 28 28 29 30 31 32 32 32
17 17 15 14 14 15 15 15 15 14 13 12 11 10 11 11 12 12 12 12 12 14 15 17 19 20 22 24 27 28 29 29 29 28 28 28 28 27 27 27 28 29 28 28 28 28 28 27 26 25 26 27 27 26 25 23 22 20 20 18 16 16 15 15 15 16 16 16 17 19 20 21 22 23 24 26 27 27 28 30 31 33 34 35 35
12 12 12 13 14 15 16 16 16 15 15 15 14 12 12 12 14 14 15 15 16 16 17 19 21 22 22 23 26 29 31 32 32 31 30 31 31 31 31 31 31 32 33 33 33 33 33 32 32 31 31 30 29 28 27 26 22 20 19 18 17 16 16 16 17 17 18 18 19 20 21 21 22 23 23 25 27 28 30 32 33 35 36 37 38
14 14 14 14 14 15 16 17 17 17 17 17 16 15 14 14 15 16 17 18 19 19 19 20 21 22 23 24 27 30 31 31 31 32 33 34 35 35 34 34 34 35 36 37 37 39 38 37 38 38 36 33 32 32 31 26 21 18 17 17 16 17 17 17 18 19 19 20 20 21 21 20 21 21 22 24 27 29 32 33 34 36 37 38 39
22 22 21 19 18 18 18 18 18 18 18 18 17 17 16 15 16 16 17 18 18 17 18 19 19 20 22 26 30 32 32 31 32 32 32 33 35 37 38 38 38 38 38 39 41 42 41 41 42 42 40 36 34 33 28 22 19 19 18 18 18 18 18 18 18 20 20 21 21 22 21 20 21 22 22 24 27 29 32 33 34 36 38 39 41
29 27 26 23 22 22 21 20 19 17 16 17 16 15 15 14 14 14 14 14 14 15 17 17 18 19 21 24 27 28 30 31 31 32 32 33 35 38 40 41 42 41 41 42 43 43 43 45 45 44 42 38 35 32 25 19 19 20 20 19 19 18 18 19 19 20 21 21 22 22 21 20 22 24 24 26 28 30 32 34 36 38 40 41 42
27 25 23 21 21 22 21 20 19 17 16 17 16 16 16 15 15 15 16 16 17 18 19 19 19 21 23 24 24 25 27 27 26 27 30 32 34 36 37 39 41 42 44 45 45 44 45 46 46 46 43 39 35 31 24 20 20 22 21 20 20 19 20 20 20 21 21 21 21 21 20 21 22 24 26 28 29 31 34 36 38 40 42 43 44
20 20 19 18 19 19 18 18 18 17 17 18 19 19 19 18 18 19 19 21 22 23 23 24 24 24 25 26 27 27 28 27 26 25 26 28 30 32 33 34 34 37 42 45 45 45 47 46 46 46 42 38 32 27 22 20 22 23 22 21 21 20 20 20 21 21 21 20 20 20 21 22 23 25 27 29 31 34 36 39 40 41 43 44 44
15 17 18 19 19 19 19 19 19 19 19 20 21 22 21 20 21 22 23 25 26 26 28 29 28 28 29 30 30 29 29 29 29 28 27 28 30 31 31 31 31 34 38 41 41 43 44 44 45 42 37 33 28 23 21 22 23 23 22 22 22 21 20 21 21 20 20 20 21 22 22 23 25 27 29 31 34 37 39 41 41 41 42 43 43
18 19 21 22 22 22 22 22 22 21 21 22 23 24 24 24 25 26 27 28 29 29 31 32 32 32 32 32 31 31 30 31 31 31 30 30 31 31 33 33 32 33 36 37 39 41 42 43 43 39 33 30 25 22 22 24 24 23 23 22 22 20 19 20 21 20 21 21 22 23 24 25 27 29 31 33 35 38 39 40 41 40 41 41 41
20 21 22 22 22 23 22 23 23 23 24 25 26 27 28 29 29 31 31 32 33 33 33 34 34 34 34 33 33 33 33 33 33 32 32 32 32 33 35 36 34 35 36 37 39 41 40 40 41 36 33 32 27 23 24 25 24 23 23 22 23 22 20 20 21 22 22 22 23 25 26 27 29 31 33 35 37 39 40 41 42 42 42 42 42
19 19 19 20 21 21 22 24 26 27 27 28 30 31 32 33 34 35 35 36 36 37 36 36 35 36 36 36 37 37 35 34 34 33 32 32 32 34 36 36 35 35 36 37 39 40 39 40 41 36 32 33 30 26 24 25 23 23 22 21 22 22 22 22 23 24 24 24 25 27 28 30 32 33 35 37 39 41 42 43 44 44 43 43 43
20 21 21 22 23 24 26 27 29 31 32 33 34 35 35 36 37 38 38 38 38 38 38 38 37 37 37 38 39 39 37 35 34 34 33 32 32 34 35 35 33 34 36 36 38 40 41 42 40 34 30 30 29 25 23 23 22 21 20 20 20 21 22 23 24 25 25 26 27 29 30 31 33 34 35 37 39 40 41 43 44 43 42 41 41
25 25 26 27 28 30 31 32 34 35 37 38 39 39 39 39 39 39 39 39 39 39 39 38 38 38 38 37 37 38 39 39 37 34 32 32 32 33 34 35 34 33 35 36 38 42 42 38 33 32 31 28 25 22 21 20 20 19 18 18 19 20 22 25 26 26 26 28 29 31 31 31 32 33 35 36 37 38 39 40 40 38 37 37 36
29 30 31 32 33 34 35 36 37 38 39 40 41 41 42 42 42 42 41 41 41 41 40 40 40 41 41 40 39 40 42 44 43 39 36 35 34 33 33 34 34 32 33 34 36 39 39 31 24 24 24 22 20 20 20 19 19 19 18 18 20 21 23 25 26 27 27 29 30 31 32 33 34 34 35 35 35 36 37 39 38 36 35 35 35
33 33 34 35 35 36 36 37 38 38 39 40 41 41 42 42 43 43 43 43 44 44 44 44 44 45 45 44 43 42 44 46 47 45 42 38 36 36 35 34 32 30 30 32 34 34 32 25 19 16 16 17 17 18 18 19 20 19 19 20 21 22 24 25 26 27 28 29 31 32 33 34 34 34 34 34 34 35 36 36 36 36 36 36 36
34 34 34 35 36 36 37 37 38 39 39 40 40 41 42 42 42 42 43 43 44 45 46 46 46 46 45 44 42 41 42 44 46 47 45 43 41 39 38 37 34 31 30 32 33 33 29 22 15 13 16 19 19 19 20 21 21 20 20 21 22 23 25 26 27 28 29 30 32 33 34 34 33 33 33 33 33 33 34 34 34 35 36 36 37
33 33 34 34 35 36 36 37 37 37 37 38 38 39 39 40 41 41 41 41 42 43 44 45 45 45 44 44 43 42 42 43 45 46 43 40 39 39 40 40 38 35 34 33 31 31 27 20 15 16 19 20 21 21 21 21 21 21 21 21 23 25 26 27 29 30 30 31 32 32 32 31 30 30 31 31 31 31 32 32 33 34 35 37 38
32 32 32 33 33 34 35 35 35 35 35 35 36 36 37 37 37 37 37 38 40 42 43 44 43 42 42 44 46 45 44 45 46 44 40 37 37 39 41 42 41 38 35 32 31 29 25 20 19 21 23 24 25 25 25 25 24 24 24 24 26 27 28 29 30 30 30 29 29 29 27 27 27 28 28 29 29 30 30 31 33 34 36 38 39
30 30 30 31 31 32 32 32 33 33 33 33 33 34 35 35 35 35 34 35 38 41 42 42 42 41 42 43 45 45 46 46 45 44 41 39 39 39 39 40 41 39 35 32 33 31 25 22 23 25 26 27 28 28 28 28 28 28 27 28 29 29 29 29 29 28 27 27 26 25 24 24 25 26 26 27 27 29 30 31 33 35 36 37 38
27 27 28 28 28 29 29 30 30 30 31 31 32 32 33 34 34 34 34 34 36 38 40 40 40 41 41 41 41 42 44 45 44 43 41 38 37 37 35 34 36 38 37 35 32 29 26 26 27 28 28 28 28 27 27 27 27 26 27 28 29 28 26 26 25 25 25 24 23 22 22 22 23 23 24 25 26 27 29 31 33 34 35 36 37
24 24 24 25 26 27 28 28 29 29 29 30 31 32 32 33 33 34 33 33 34 36 38 39 40 41 41 41 41 42 43 43 44 45 43 40 39 39 37 34 33 35 36 34 31 28 27 29 30 29 28 27 26 25 24 23 24 25 25 25 25 24 22 21 22 22 21 21 20 20 20 20 21 22 23 24 25 26 28 30 32 33 35 35 35
22 22 23 24 25 26 27 27 27 28 29 30 31 32 34 35 35 35 34 33 34 35 36 37 39 41 43 43 44 44 43 42 42 43 43 43 42 41 39 36 35 36 36 34 30 29 29 30 31 29 27 25 25 24 24 23 25 26 26 24 23 20 18 18 19 19 19 19 19 19 19 19 19 20 21 23 24 26 27 29 31 33 33 33 32
21 22 23 23 24 24 25 25 26 27 28 29 31 32 32 33 34 35 34 32 32 33 34 36 37 39 42 44 45 44 42 40 40 39 37 35 38 41 43 40 38 41 42 39 34 32 32 31 30 28 26 26 25 24 25 26 27 26 24 22 21 19 17 17 18 18 17 17 17 17 17 18 18 19 20 21 23 25 26 28 30 31 30 29 28
22 22 22 22 22 23 24 24 25 26 26 26 27 27 28 28 29 31 32 29 28 30 32 35 36 36 38 41 43 43 40 39 39 39 36 33 33 37 42 46 45 43 42 39 34 33 34 32 30 28 27 27 26 24 25 25 23 21 20 20 19 18 18 18 18 17 16 15 15 16 16 16 16 17 18 20 22 23 25 26 27 28 27 27 27
22 22 21 21 21 22 22 23 24 24 24 24 24 24 25 26 27 28 29 27 25 26 29 32 33 33 33 34 36 37 37 37 37 38 38 39 38 34 35 41 44 40 37 34 33 33 33 32 30 29 28 27 25 23 22 20 19 19 19 18 18 19 19 19 17 15 15 15 14 15 15 15 15 16 18 19 20 22 23 24 25 26 26 25 25
20 20 19 19 20 21 21 22 22 22 22 23 24 25 25 26 27 27 26 25 23 24 26 27 26 25 26 27 26 27 28 31 33 33 34 38 39 33 26 29 35 36 35 34 32 33 34 34 31 30 30 29 26 23 20 19 19 20 19 18 19 20 20 18 16 14 14 14 14 13 13 13 14 15 17 18 19 20 22 23 24 25 25 25 24
18 18 18 18 19 20 20 21 21 21 22 23 24 25 25 26 26 25 23 22 21 21 23 23 20 17 18 20 21 20 21 24 27 28 29 32 34 31 25 26 32 37 38 37 35 35 35 33 31 31 30 28 24 21 20 20 20 19 19 19 19 19 18 16 14 13 14 13 12 12 11 12 13 14 15 17 18 19 20 22 23 24 25 24 24
18 17 17 18 18 18 19 19 20 21 23 24 25 25 25 24 23 21 19 17 16 15 16 18 17 15 15 17 18 19 19 19 20 22 24 25 26 27 29 31 34 35 36 35 34 33 31 30 31 31 27 23 20 19 20 20 19 18 19 20 19 18 16 15 14 13 13 11 10 10 10 11 12 13 15 16 17 19 20 21 23 24 24 24 24
17 16 16 17 17 17 17 19 20 21 23 24 24 24 23 21 19 17 14 12 10 11 13 15 15 15 15 13 14 16 17 17 17 18 19 20 21 25 28 30 30 29 28 28 28 28 28 29 30 26 20 17 19 20 20 19 18 18 19 20 19 17 15 14 13 12 11 9 8 9 9 11 12 13 14 16 17 19 20 21 22 23 23 23 23
16 16 15 15 16 16 17 18 20 20 21 22 22 20 19 17 14 10 8 9 9 10 12 13 14 14 12 11 11 13 14 14 14 16 17 19 21 23 25 24 23 24 25 25 26 27 27 28 26 21 17 18 20 20 18 16 16 17 19 19 17 15 14 14 13 12 9 7 7 7 9 11 12 13 14 16 17 19 20 20 21 22 23 23 23
18 16 14 14 14 15 16 17 18 18 19 19 18 17 15 11 5 2 4 6 7 7 9 10 9 7 7 9 10 12 13 14 14 15 17 20 21 23 24 24 25 26 25 24 24 24 25 25 22 19 18 20 20 18 15 15 16 18 19 17 16 15 15 14 13 10 7 5 5 7 9 10 11 12 14 15 17 18 19 21 22 22 22 23 23
19 16 13 12 13 13 15 16 16 16 16 16 16 13 8 1 4 3 1 3 5 5 5 5 3 2 4 7 9 10 12 14 14 16 17 19 21 22 22 21 22 25 25 24 26 27 26 23 20 20 20 21 19 17 17 17 18 18 16 15 15 16 15 13 11 9 6 3 4 6 8 9 11 12 13 15 17 18 20 22 23 22 22 23 23
18 14 12 12 12 12 14 15 14 14 15 14 13 9 1 7 7 2 4 3 1 3 2 1 2 1 3 6 8 9 10 12 14 16 18 20 21 22 20 18 19 24 27 28 28 28 24 21 21 21 20 19 18 18 18 18 17 16 14 14 15 15 13 12 10 7 4 3 4 5 7 9 10 11 13 15 16 18 20 21 22 21 22 23 23
17 14 12 12 11 12 14 14 14 14 14 13 10 5 4 10 8 1 3 3 4 6 6 5 3 3 4 5 7 9 10 11 12 14 17 20 23 24 22 19 19 24 27 29 27 24 22 21 21 19 17 17 18 17 16 15 16 15 14 14 14 13 12 11 9 6 4 3 4 5 6 8 9 11 12 14 16 17 19 20 21 21 22 22 23
17 15 13 11 11 12 13 13 13 13 13 12 8 4 4 9 10 7 6 6 6 6 7 7 6 6 6 6 8 9 10 12 13 14 17 20 23 25 24 20 19 23 27 26 22 20 20 20 18 16 15 16 16 15 15 15 16 15 13 12 12 11 11 10 7 5 4 4 4 4 6 7 9 10 12 13 15 16 18 19 20 21 22 23 24
17 16 13 11 11 11 13 13 12 12 12 10 7 3 2 5 8 9 9 9 7 6 6 6 6 5 5 7 8 9 9 10 10 11 13 15 19 22 23 21 20 22 23 22 19 18 18 16 14 13 14 15 15 15 16 15 13 12 11 11 10 10 9 8 6 5 5 5 5 5 6 7 8 10 12 13 14 16 17 18 19 21 22 23 23
16 16 13 11 10 10 11 12 12 11 10 9 6 4 2 2 3 5 7 7 6 5 5 5 4 4 4 4 6 7 8 7 6 7 7 13 18 19 19 19 19 19 19 18 17 16 14 12 11 13 15 16 16 15 14 11 10 10 11 10 9 9 8 6 5 5 6 6 5 5 6 7 8 10 11 13 14 15 16 17 18 20 21 22 22
15 15 13 12 11 10 10 10 10 10 9 8 7 5 5 4 4 5 6 7 5 3 4 4 3 3 3 3 3 3 4 4 3 2 4 12 15 15 16 16 16 17 16 16 14 12 10 10 12 14 15 15 13 11 10 9 9 10 10 10 9 8 7 5 5 6 7 7 6 6 6 7 8 10 11 12 13 14 16 17 18 19 20 21 22
13 14 14 13 11 10 9 9 9 9 9 8 8 7 7 6 4 4 5 6 4 3 3 4 3 2 2 1 1 1 2 3 4 6 11 15 15 15 15 14 14 14 15 14 13 11 11 11 12 12 13 12 9 8 8 9 10 10 10 10 9 8 6 5 6 7 7 7 6 6 7 7 9 10 11 11 13 14 15 16 17 18 19 20 21
11 13 13 13 12 11 10 9 8 7 8 8 8 8 7 7 6 4 5 6 5 3 3 3 3 2 1 1 1 2 3 5 7 10 13 14 13 13 14 13 13 13 13 13 12 12 12 12 11 10 10 9 8 8 9 10 10 10 10 9 8 7 6 6 6 7 7 7 6 7 7 8 9 10 11 11 12 13 14 15 16 17 18 19 20
10 12 13 13 12 12 11 10 9 8 8 8 9 9 8 7 7 8 8 7 6 4 3 2 1 0 0 1 3 5 7 8 9 10 11 11 11 11 12 12 12 12 12 11 11 12 12 11 10 9 8 7 8 9 10 10 11 10 10 9 8 7 6 6 7 7 7 6 6 7 8 8 9 10 10 11 12 12 13 14 15 16 17 18 18
Wind_Direction
192 199 202 203 207 215 226 237 248 258 265 273 279 281 282 287 296 302 301 296 292 291 283 236 210 219 226 223 213 202 194 186 183 180 181 183 180 181 180 175 171 166 161 154 145 142 139 136 133 130 131 138 138 140 147 145 161 176 175 186 200 222 247 258 265 265 268 275 283 294 299 299 299 298 296 298 299 300 304 308 308 309 310 311 317
195 199 201 201 206 214 226 240 249 253 258 266 271 276 282 293 304 308 306 300 296 297 262 197 192 198 209 217 208 195 192 185 184 181 179 180 180 184 183 177 171 165 160 154 150 150 147 143 138 133 141 165 185 200 212 237 250 244 229 220 218 229 250 271 278 272 273 283 290 293 296 302 303 299 298 298 300 307 313 316 318 316 315 319 320
195 198 200 202 207 215 223 232 237 240 250 259 265 275 287 300 310 312 310 304 302 303 234 187 187 191 204 218 211 202 199 192 186 183 180 178 178 177 175 174 172 169 170 170 171 171 167 165 160 187 246 267 269 275 266 256 262 266 263 260 255 255 264 277 282 285 292 297 298 295 295 303 302 299 300 296 295 306 315 322 328 325 322 326 323
198 203 204 203 206 211 215 221 228 234 243 252 262 276 290 301 311 316 313 307 306 304 193 182 187 190 204 221 219 211 207 201 197 194 192 191 191 187 186 191 193 203 220 227 233 237 221 218 232 239 249 259 263 266 263 262 268 270 271 277 274 260 254 258 267 279 290 296 301 301 303 311 311 309 312 311 309 312 313 322 333 334 330 331 329
203 207 207 205 205 208 212 217 226 237 243 249 261 275 289 304 312 314 311 303 299 267 182 185 192 195 207 223 227 224 218 214 214 212 209 211 214 217 218 223 233 249 261 263 260 262 259 254 255 255 259 265 267 267 261 263 272 273 273 278 275 259 243 248 259 269 279 286 293 297 302 310 315 314 313 315 318 319 317 322 332 335 334 332 331
199 200 203 203 201 202 208 217 228 237 243 249 260 272 286 300 307 306 302 295 280 237 198 198 201 202 211 223 230 231 228 227 227 227 227 228 231 235 237 243 251 256 263 266 262 262 264 265 265 267 273 277 278 279 273 265 268 271 272 274 277 277 264 254 263 269 272 277 283 291 298 303 307 306 305 310 315 316 318 322 326 327 328 327 326
197 199 201 198 193 198 212 223 230 233 237 245 253 263 274 282 289 292 291 283 267 245 224 216 213 211 216 224 231 233 233 234 235 236 237 237 240 243 245 250 255 260 266 269 266 264 263 268 272 273 275 277 278 279 278 272 267 268 271 269 272 280 280 268 270 275 276 282 289 296 303 307 308 308 306 308 312 312 316 321 321 321 322 323 322
198 199 197 192 193 204 216 222 224 226 229 236 243 252 263 270 274 278 279 271 260 252 243 236 230 225 224 228 233 236 237 238 241 242 243 243 244 246 250 253 255 260 265 267 268 269 271 277 281 281 280 278 276 276 276 275 269 266 270 268 265 270 272 269 270 275 283 293 297 299 302 305 307 308 309 311 313 314 317 320 320 319 319 320 320
190 193 193 196 203 212 218 218 219 222 225 230 241 253 265 271 270 269 268 265 261 256 253 251 246 239 235 236 238 240 241 242 244 246 247 248 249 250 252 253 255 259 263 267 272 274 275 278 280 282 284 281 277 276 274 274 273 272 272 268 261 260 263 266 268 273 282 289 291 293 296 301 305 305 307 311 314 317 318 318 317 317 317 317 319
185 188 191 197 209 218 222 223 224 228 233 238 247 261 271 274 272 270 268 266 262 257 255 255 251 246 244 244 245 245 245 245 246 248 249 251 254 255 256 257 261 264 265 268 272 272 272 274 276 280 283 281 279 276 273 274 276 273 268 261 255 254 256 261 268 274 283 288 290 292 294 299 303 301 302 309 313 315 315 314 314 316 317 318 319
195 191 188 192 207 218 224 229 232 234 239 243 247 255 263 267 267 268 266 263 261 258 256 255 254 252 250 248 248 249 249 248 247 248 250 253 256 258 259 261 265 268 268 270 272 272 273 274 274 279 284 284 281 276 274 278 278 269 260 254 250 253 257 263 269 276 283 287 289 292 295 299 301 298 301 307 310 312 313 314 316 317 318 318 318
207 200 194 196 205 214 222 229 234 237 242 246 249 254 259 262 264 264 264 264 262 259 257 257 257 258 258 255 255 255 254 252 250 250 252 255 257 259 260 262 265 267 270 273 275 275 275 274 274 280 287 288 285 278 275 280 277 264 255 250 248 253 260 267 272 277 283 287 289 291 295 299 300 298 302 307 309 311 314 316 318 318 318 318 318
199 201 205 206 207 213 222 228 231 236 242 244 246 251 254 257 258 258 258 260 261 259 258 258 257 260 262 262 262 260 257 255 255 255 255 256 258 260 261 262 263 266 269 273 275 275 275 275 276 281 288 291 289 282 276 274 267 254 249 249 250 256 263 269 275 280 285 289 291 293 296 298 298 298 302 307 310 312 315 317 317 317 317 317 317
200 203 207 207 208 215 223 229 230 234 239 240 240 242 242 241 243 245 247 251 256 260 263 265 264 263 262 260 262 264 263 264 264 261 258 259 262 264 265 265 264 265 267 269 272 274 276 276 277 281 287 291 292 286 276 264 253 247 247 250 252 258 264 270 277 283 287 291 292 295 299 301 302 304 307 309 311 314 316 317 317 317 316 315 315
205 208 210 210 213 218 223 227 229 231 236 239 241 243 244 244 245 248 250 252 258 263 268 272 272 269 267 265 267 271 271 270 268 263 262 265 269 270 271 271 270 268 267 268 269 271 273 275 276 280 283 286 285 280 268 251 243 244 245 248 253 259 266 272 279 284 288 292 294 297 301 303 305 307 310 311 314 316 317 316 316 316 315 314 314
211 213 216 217 221 226 230 231 232 233 234 237 240 241 242 243 244 249 253 256 260 263 268 274 275 274 274 274 277 279 277 274 268 262 261 264 267 270 272 274 273 271 269 267 267 267 268 271 274 276 280 283 278 267 253 239 237 241 245 249 255 262 268 275 281 285 288 291 294 299 303 304 307 309 312 314 316 316 315 315 316 316 315 315 315
214 214 217 220 224 230 234 236 237 239 240 242 243 241 239 240 243 249 256 261 264 266 270 275 277 277 276 277 279 281 279 276 270 263 258 257 260 264 267 269 271 271 269 268 267 267 267 269 270 272 277 278 267 249 237 231 232 238 245 250 256 262 269 276 281 285 290 294 298 302 305 307 310 311 312 314 315 314 315 316 316 316 314 313 312
225 221 221 224 227 230 236 243 246 246 248 251 251 250 250 251 255 260 265 267 270 272 274 277 279 278 277 276 277 277 276 275 272 267 264 259 258 260 263 265 266 267 268 268 267 266 267 268 269 271 274 270 252 231 225 228 231 237 244 250 257 264 272 279 285 291 297 300 302 304 306 308 309 310 312 313 314 315 315 315 315 313 311 310 309
241 237 234 234 238 242 249 257 260 260 261 260 259 259 260 260 261 264 266 268 271 273 276 278 279 278 278 278 276 273 271 270 269 268 268 265 262 262 263 264 265 266 267 269 268 265 264 266 269 268 267 258 240 222 223 230 234 241 246 252 260 267 276 284 291 297 299 300 301 304 305 307 308 310 312 312 312 312 312 312 312 310 309 309 308
256 256 254 255 257 260 263 266 267 268 267 265 264 264 263 263 264 265 266 268 270 272 273 274 275 275 277 276 274 270 268 267 267 267 266 265 265 265 264 263 263 264 265 267 266 264 263 266 267 263 256 248 231 215 221 231 236 244 251 258 266 273 281 289 295 299 299 301 303 304 304 305 306 308 308 308 308 311 312 313 313 312 312 311 311
263 265 265 265 265 265 266 266 266 266 265 264 264 264 264 265 265 266 267 268 269 269 270 269 269 270 271 272 272 271 268 266 267 268 267 266 266 265 263 262 261 263 264 263 263 265 266 266 264 257 247 239 226 212 218 231 238 246 255 264 274 283 291 297 299 300 301 303 303 302 302 303 305 307 308 309 311 313 314 313 313 313 313 312 311
265 265 266 266 266 267 268 268 268 268 267 266 265 265 265 265 265 266 266 267 267 267 267 267 266 266 267 269 271 273 273 272 271 270 269 268 268 267 266 266 265 266 266 265 267 268 263 257 254 245 230 222 217 213 219 231 240 249 259 270 281 289 295 298 299 299 301 302 301 301 302 305 307 309 310 310 312 313 312 312 312 312 312 311 311
272 272 272 272 271 272 272 272 272 271 270 269 268 267 267 266 266 266 265 265 264 264 263 264 264 265 266 266 268 271 274 276 275 272 270 269 268 268 270 269 267 265 265 268 271 267 257 248 243 234 219 208 205 210 220 232 243 253 263 273 282 289 293 296 297 299 300 300 300 301 303 304 306 307 308 309 310 310 310 309 309 309 309 308 307
278 277 277 276 276 276 276 276 275 273 271 270 269 268 268 268 268 267 266 264 263 262 261 262 263 265 266 267 267 268 270 273 275 274 272 270 269 269 270 268 266 266 266 267 266 260 250 239 225 216 212 210 210 216 226 237 248 258 266 274 281 287 291 294 296 298 298 298 298 300 302 303 305 306 306 307 308 308 306 306 306 307 306 304 304
283 282 282 281 281 281 280 279 278 276 275 274 273 272 271 270 269 268 267 265 264 263 263 262 263 265 266 267 268 268 268 270 271 271 269 266 266 268 268 268 268 266 265 265 263 256 246 234 218 204 207 218 227 231 236 244 251 258 266 273 279 286 291 294 295 296 296 297 298 300 302 303 304 304 305 307 307 306 305 305 307 308 307 307 308
290 290 289 288 287 286 284 283 282 281 280 278 277 276 274 273 272 270 268 266 265 264 263 263 262 262 261 262 264 265 265 266 267 266 264 262 261 263 265 267 267 263 261 263 258 248 242 244 242 225 215 222 233 239 242 247 253 259 266 274 281 287 291 293 292 293 294 297 298 300 300 301 303 305 307 308 307 305 306 307 308 309 309 309 309
296 295 294 292 291 289 288 286 285 284 283 281 279 277 276 274 273 271 269 267 264 262 261 261 260 260 258 257 256 257 260 262 263 265 265 261 258 258 261 263 264 261 260 257 247 238 241 249 244 225 221 227 233 237 240 244 250 258 267 278 285 289 290 290 289 290 293 296 298 298 299 301 304 307 307 306 305 305 306 307 307 308 309 309 309
297 296 295 293 292 290 289 288 287 285 284 282 280 279 278 276 274 273 271 267 263 260 258 256 255 254 254 254 252 251 252 256 259 262 263 261 260 259 258 258 258 258 255 248 240 238 240 237 226 222 225 230 233 237 243 249 255 263 271 277 283 287 288 288 288 290 293 295 296 297 300 303 306 306 305 304 305 305 305 306 307 309 311 311 310
297 296 294 292 290 289 287 286 286 285 284 282 281 280 279 278 276 274 271 268 264 263 261 258 254 251 251 253 253 250 249 251 256 259 261 263 264 261 255 252 251 249 246 243 242 241 235 228 230 235 239 243 248 252 257 261 267 272 276 278 282 284 284 284 286 289 292 294 297 302 306 307 306 304 304 304 305 306 307 310 312 312 312 310 310
294 293 292 290 288 286 285 284 283 283 283 283 283 281 280 280 279 276 273 269 265 264 263 260 255 250 249 252 254 252 249 248 251 256 258 260 261 259 258 257 250 242 240 241 238 232 230 234 240 244 249 255 261 264 267 270 273 274 278 281 284 284 283 284 287 291 294 299 304 307 308 306 304 304 305 305 306 308 311 313 313 312 310 310 310
294 294 293 292 290 288 286 285 284 284 285 285 285 285 283 282 281 280 277 273 268 263 261 259 255 251 248 249 250 252 251 249 248 251 254 255 255 257 262 262 252 240 237 234 225 222 230 238 242 247 254 259 262 265 267 268 269 273 279 281 280 279 282 287 291 295 298 302 305 305 303 304 305 305 305 306 308 311 313 313 312 311 311 311 312
297 298 297 296 293 290 288 288 288 288 289 289 288 287 286 285 283 281 279 276 272 267 261 256 253 250 248 248 249 251 251 250 248 249 252 253 253 253 256 257 251 241 233 227 224 228 235 239 243 248 252 254 255 258 260 264 270 276 279 275 269 268 277 288 293 296 299 300 301 301 303 306 306 305 306 308 311 313 314 314 315 315 315 315 316
300 301 300 298 295 293 292 291 291 291 291 290 290 289 289 288 286 284 281 276 271 268 263 257 252 248 247 249 251 252 251 249 247 248 252 255 254 251 248 247 245 238 228 220 220 226 230 233 238 242 243 246 250 256 263 271 276 277 274 269 266 270 281 291 295 295 296 296 298 301 304 305 304 306 310 313 315 317 318 318 318 318 318 319 320
302 301 299 297 296 295 295 295 294 294 293 293 293 294 294 294 293 291 289 283 272 265 261 256 251 249 248 249 251 253 252 249 246 246 249 253 257 256 248 240 233 225 218 215 219 224 225 227 231 234 237 243 251 261 269 272 271 266 263 264 271 280 289 293 293 292 293 295 299 302 301 301 304 310 314 316 318 320 322 322 322 322 323 324 324
304 302 299 297 297 297 298 297 297 297 296 296 298 300 301 303 301 297 294 290 279 267 258 253 250 250 250 249 250 252 252 249 248 249 249 250 256 261 252 235 223 212 209 216 224 224 222 224 228 231 236 243 252 263 268 264 257 255 257 263 274 283 289 291 290 291 294 297 299 298 297 301 310 316 319 320 323 325 327 327 328 328 329 328 327
304 303 300 299 299 301 301 300 298 298 299 300 303 305 305 304 301 296 293 290 281 268 258 252 249 249 249 249 249 251 250 248 248 251 252 251 254 257 246 223 212 208 213 222 227 224 223 226 229 232 240 249 256 261 260 255 253 253 255 262 272 280 284 286 286 289 292 293 292 293 299 310 319 322 323 326 328 331 332 333 333 333 332 331 331
310 308 305 304 304 305 305 304 302 303 305 307 307 307 306 302 298 295 291 287 280 268 256 249 246 245 247 250 249 249 250 251 250 252 254 254 254 255 244 222 211 211 214 219 222 222 224 227 231 240 250 256 256 254 251 249 250 251 255 263 271 276 279 279 280 283 285 285 289 297 309 319 323 325 328 331 334 336 338 338 338 337 336 335 335
317 314 311 309 309 310 310 310 309 311 313 314 313 311 308 303 299 296 289 280 270 257 241 233 233 238 244 246 244 243 247 251 251 251 253 255 256 256 246 232 222 217 213 211 215 219 222 228 238 247 253 252 245 241 242 242 244 251 259 266 270 272 272 273 275 277 279 283 294 306 316 323 327 330 333 336 339 342 344 343 342 340 339 338 337
323 320 317 315 315 316 316 316 316 317 318 317 316 315 313 310 306 298 282 259 236 223 217 219 232 247 248 238 232 235 241 245 247 249 251 252 253 248 237 227 224 224 221 216 218 222 226 233 240 242 238 233 231 231 233 238 246 255 262 265 266 266 266 267 269 270 273 282 298 310 321 328 331 334 337 340 344 347 347 346 345 343 342 341 340
330 325 322 320 320 321 320 319 320 322 322 322 322 322 321 318 312 295 259 223 204 208 221 231 244 254 245 220 211 220 229 233 238 243 245 245 246 245 241 239 243 249 247 238 229 223 223 227 231 227 218 219 225 226 228 240 253 258 260 261 261 261 260 260 261 260 263 278 302 320 329 332 333 336 340 344 348 348 346 347 349 348 346 344 344
337 328 323 322 323 325 324 324 326 329 331 332 332 330 328 325 319 237 208 213 215 223 233 236 238 235 209 188 192 208 218 224 229 234 238 241 242 244 247 251 252 252 250 243 233 226 224 223 219 212 211 219 226 230 238 249 255 256 258 261 261 258 256 254 254 254 258 281 318 328 329 331 333 337 342 346 347 345 346 350 352 350 348 348 349
337 329 326 327 329 329 329 332 338 342 343 343 341 337 339 25 132 134 160 219 219 217 216 208 186 153 159 173 191 209 219 224 230 232 235 241 242 242 247 249 240 230 228 228 229 230 229 220 208 204 212 221 228 236 245 252 256 258 262 264 261 258 255 251 248 250 256 288 329 328 327 331 334 336 342 345 344 343 347 352 351 349 349 353 354
338 337 338 337 336 338 340 346 353 358 357 355 352 350 36 152 150 80 6 357 292 264 255 182 96 100 170 185 198 211 219 226 233 237 238 238 238 239 244 241 224 211 206 207 212 218 217 208 203 208 216 223 231 239 246 253 260 264 265 262 258 255 252 248 247 249 260 301 327 326 326 329 331 335 341 343 341 343 349 351 348 347 352 356 355
348 352 351 344 344 350 354 359 6 10 9 8 8 17 148 170 173 172 346 323 298 292 290 286 277 261 240 222 219 223 228 233 240 247 248 243 237 236 234 228 219 213 206 200 201 206 207 204 207 215 223 232 239 244 249 257 262 262 260 255 251 248 246 245 246 250 267 293 312 322 325 326 329 334 339 340 340 344 347 347 345 348 353 356 358
356 359 356 352 354 359 4 10 17 21 20 20 26 53 146 181 195 215 249 266 273 278 281 282 273 257 249 244 236 235 243 248 252 260 262 251 239 233 231 227 222 217 209 200 198 203 207 208 212 220 229 235 240 244 251 256 257 254 250 244 240 239 240 242 245 253 269 286 302 316 320 322 327 332 336 337 339 342 344 344 344 347 352 357 1
1 2 360 358 1 5 10 18 24 27 29 33 42 68 147 194 211 228 248 263 266 262 267 279 280 268 256 250 245 248 255 261 270 280 273 251 232 226 225 220 211 202 197 195 198 206 209 212 218 226 232 236 240 246 250 251 248 245 240 233 228 230 235 239 245 255 267 278 293 307 312 318 324 329 331 333 336 339 341 342 343 347 352 358 2
3 5 4 3 6 9 15 22 28 31 34 39 42 31 353 303 261 259 269 273 267 258 263 274 278 272 266 263 266 267 263 268 301 316 278 232 217 208 201 193 187 183 185 194 204 210 212 215 221 228 233 237 240 244 246 244 239 236 230 222 218 221 226 233 244 258 267 274 286 298 306 312 320 324 326 329 334 337 338 340 344 347 351 355 359
5 8 9 10 11 11 15 22 28 34 37 38 38 34 17 356 338 316 301 294 288 275 267 261 256 260 268 279 301 302 269 252 284 314 190 186 183 175 170 172 177 181 189 202 212 216 218 218 222 230 237 239 240 242 241 236 231 227 221 217 215 214 216 227 246 258 266 272 281 291 299 308 315 319 321 326 330 333 335 338 343 347 350 353 356
11 12 14 17 17 16 17 20 25 33 36 32 28 28 26 15 1 332 307 306 311 293 253 241 235 243 259 259 285 299 243 210 201 185 171 166 164 164 168 176 183 189 199 210 216 220 225 226 228 235 241 241 240 240 235 228 224 222 220 218 217 212 213 228 246 256 264 270 278 288 296 305 311 313 316 322 326 328 332 337 341 344 348 351 353
16 19 21 23 22 22 21 19 18 22 27 25 21 19 16 10 2 343 320 315 321 309 271 252 241 238 246 235 215 210 182 158 160 172 177 174 174 179 185 189 195 202 211 216 216 222 232 239 241 244 246 243 240 236 228 221 219 219 218 218 220 219 222 232 243 252 262 269 278 290 298 303 307 310 315 321 324 326 330 335 337 341 345 348 351
14 22 27 29 30 30 29 27 24 20 18 18 18 19 20 17 7 357 345 330 312 290 263 245 237 258 342 132 153 160 152 139 140 158 175 184 193 201 205 204 203 205 213 220 224 230 239 246 248 249 247 240 234 228 221 216 216 216 215 218 223 225 227 232 239 249 260 271 282 293 296 300 305 310 314 318 321 324 328 332 334 337 341 344 348
Height
3116 3117 3118 3119 3121 3122 3123 3124 3125 3126 3126 3127 3127 3128 3128 3128 3128 3128 3128 3127 3127 3128 3128 3129 3130 3131 3133 3134 3135 3136 3137 3138 3138 3139 3140 3141 3142 3143 3144 3145 3146 3146 3147 3148 3149 3149 3150 3151 3151 3152 3152 3153 3153 3154 3154 3154 3155 3155 3155 3155 3155 3155 3155 3155 3156 3156 3155 3155 3155 3155 3155 3155 3154 3155 3155 3154 3153 3153 3153 3153 3152 3152 3152 3153 3153
3115 3116 3117 3118 3119 3121 3122 3123 3124 3125 3125 3126 3126 3126 3127 3127 3127 3126 3126 3126 3126 3126 3127 3128 3130 3131 3132 3134 3135 3136 3137 3138 3139 3140 3141 3141 3142 3143 3144 3145 3146 3147 3148 3148 3149 3150 3150 3151 3151 3151 3152 3152 3153 3154 3154 3154 3154 3153 3154 3154 3155 3155 3154 3154 3153 3154 3154 3154 3153 3153 3154 3153 3152 3152 3153 3152 3151 3151 3151 3151 3150 3149 3150 3150 3150
3114 3115 3116 3117 3119 3120 3121 3122 3123 3124 3125 3125 3125 3126 3126 3126 3126 3125 3125 3125 3124 3125 3126 3127 3129 3130 3132 3134 3135 3136 3137 3138 3139 3140 3141 3142 3143 3144 3145 3146 3147 3147 3148 3149 3149 3150 3150 3151 3151 3151 3152 3152 3152 3153 3153 3153 3152 3152 3152 3153 3154 3154 3154 3153 3151 3151 3151 3151 3151 3151 3152 3153 3151 3150 3151 3151 3150 3150 3149 3149 3148 3147 3147 3147 3147
3113 3114 3115 3117 3118 3120 3120 3121 3122 3123 3124 3124 3124 3125 3125 3125 3124 3124 3124 3124 3124 3124 3125 3127 3129 3130 3133 3134 3135 3136 3137 3138 3139 3140 3141 3142 3143 3144 3145 3146 3147 3147 3148 3149 3149 3150 3150 3150 3151 3151 3151 3151 3152 3152 3152 3152 3151 3152 3152 3152 3152 3153 3152 3151 3150 3150 3150 3149 3149 3149 3150 3150 3149 3148 3148 3148 3149 3149 3148 3147 3147 3145 3144 3144 3143
3112 3113 3115 3116 3118 3119 3119 3120 3121 3122 3122 3123 3123 3123 3123 3124 3123 3123 3124 3124 3124 3125 3126 3127 3129 3130 3133 3134 3135 3137 3137 3138 3139 3140 3141 3142 3143 3144 3145 3145 3146 3147 3147 3148 3148 3149 3149 3150 3150 3150 3150 3151 3151 3151 3152 3151 3150 3151 3151 3150 3150 3151 3151 3150 3149 3150 3149 3148 3148 3147 3148 3148 3147 3147 3146 3146 3146 3146 3145 3145 3144 3143 3142 3141 3140
3112 3113 3114 3116 3117 3118 3119 3119 3120 3121 3121 3122 3122 3122 3122 3122 3123 3123 3123 3124 3124 3125 3126 3127 3129 3130 3132 3134 3135 3136 3137 3138 3139 3140 3141 3142 3142 3143 3144 3145 3146 3146 3146 3147 3147 3147 3148 3148 3149 3149 3150 3150 3150 3150 3151 3151 3150 3150 3150 3149 3148 3148 3149 3149 3148 3148 3148 3147 3147 3146 3146 3146 3146 3146 3145 3144 3143 3143 3143 3143 3142 3142 3141 3140 3139
3110 3111 3113 3115 3116 3117 3118 3118 3119 3120 3120 3121 3121 3121 3121 3121 3122 3123 3123 3124 3124 3125 3126 3127 3129 3130 3132 3133 3134 3135 3136 3137 3138 3139 3140 3141 3142 3142 3143 3144 3144 3145 3145 3145 3145 3146 3146 3146 3147 3148 3148 3148 3148 3149 3149 3149 3149 3148 3149 3148 3147 3146 3148 3148 3148 3147 3146 3146 3145 3145 3144 3144 3143 3143 3143 3143 3142 3140 3140 3141 3140 3139 3138 3137 3136
3108 3109 3111 3113 3114 3116 3117 3117 3118 3118 3119 3119 3120 3120 3120 3121 3121 3122 3122 3123 3124 3125 3126 3127 3128 3129 3131 3132 3133 3134 3135 3135 3136 3138 3139 3139 3140 3141 3142 3143 3143 3143 3144 3143 3143 3144 3145 3146 3146 3146 3147 3147 3146 3147 3147 3147 3147 3147 3147 3147 3146 3146 3146 3146 3146 3146 3145 3144 3143 3143 3143 3142 3142 3140 3139 3139 3139 3138 3137 3137 3136 3135 3135 3134 3134
3104 3107 3108 3110 3112 3114 3115 3116 3116 3117 3118 3118 3119 3119 3119 3120 3120 3121 3121 3122 3123 3124 3125 3126 3128 3129 3129 3130 3131 3132 3133 3134 3135 3136 3137 3138 3139 3140 3141 3141 3141 3142 3142 3141 3141 3142 3143 3144 3144 3144 3145 3145 3145 3145 3145 3145 3145 3145 3145 3145 3144 3144 3144 3144 3144 3144 3144 3143 3142 3141 3141 3140 3140 3138 3137 3136 3136 3135 3134 3134 3133 3132 3131 3131 3131
3100 3102 3104 3107 3110 3112 3113 3114 3115 3116 3117 3117 3118 3118 3119 3119 3120 3120 3121 3121 3122 3124 3124 3125 3127 3127 3128 3129 3129 3130 3131 3132 3133 3135 3136 3137 3138 3139 3139 3139 3139 3139 3140 3140 3140 3140 3141 3142 3142 3142 3143 3143 3143 3142 3142 3142 3143 3142 3142 3142 3142 3142 3142 3142 3142 3142 3141 3141 3140 3139 3138 3138 3137 3136 3135 3134 3133 3133 3132 3131 3130 3129 3128 3126 3127
3101 3101 3102 3105 3108 3110 3111 3113 3114 3115 3116 3116 3117 3118 3118 3119 3120 3120 3120 3121 3121 3122 3123 3124 3125 3126 3127 3127 3127 3128 3129 3130 3131 3133 3134 3135 3136 3137 3138 3137 3137 3137 3137 3138 3138 3138 3139 3139 3139 3140 3140 3140 3140 3140 3139 3139 3139 3139 3139 3139 3139 3139 3139 3139 3139 3139 3139 3139 3138 3137 3136 3135 3135 3134 3133 3132 3131 3130 3129 3128 3127 3125 3123 3122 3121
3104 3104 3103 3103 3106 3109 3110 3111 3113 3114 3115 3115 3116 3117 3118 3118 3119 3119 3120 3120 3121 3121 3122 3123 3123 3124 3125 3125 3126 3127 3126 3127 3130 3132 3133 3134 3134 3135 3135 3135 3135 3135 3134 3135 3135 3134 3135 3135 3136 3137 3137 3137 3137 3136 3136 3136 3136 3136 3136 3136 3136 3136 3136 3136 3136 3136 3136 3136 3135 3134 3134 3133 3132 3131 3131 3130 3128 3127 3126 3124 3123 3121 3119 3118 3116
3102 3103 3103 3104 3106 3108 3108 3110 3111 3112 3113 3115 3115 3116 3117 3117 3118 3118 3119 3120 3120 3120 3121 3121 3122 3122 3123 3124 3125 3124 3123 3125 3128 3130 3131 3131 3131 3131 3132 3132 3133 3132 3131 3131 3131 3130 3130 3131 3131 3131 3132 3133 3132 3132 3132 3132 3132 3132 3132 3133 3133 3134 3134 3134 3133 3133 3133 3133 3132 3132 3131 3131 3129 3129 3128 3127 3125 3124 3122 3121 3120 3118 3116 3115 3113
3098 3100 3101 3103 3104 3105 3106 3108 3110 3111 3112 3113 3114 3114 3115 3116 3117 3117 3117 3118 3118 3118 3118 3119 3120 3120 3121 3121 3121 3120 3122 3124 3126 3127 3128 3128 3128 3128 3128 3128 3128 3128 3128 3128 3126 3126 3126 3126 3126 3126 3127 3128 3128 3127 3127 3127 3127 3128 3129 3130 3130 3131 3131 3131 3131 3130 3130 3130 3129 3128 3128 3128 3126 3125 3125 3124 3122 3121 3119 3118 3117 3115 3113 3111 3110
3094 3096 3098 3100 3101 3102 3104 3105 3107 3109 3110 3110 3111 3112 3112 3112 3113 3113 3114 3114 3115 3115 3115 3116 3117 3118 3117 3117 3117 3118 3119 3121 3123 3124 3124 3125 3124 3123 3123 3123 3123 3123 3124 3123 3122 3123 3122 3121 3121 3122 3122 3124 3124 3123 3123 3124 3124 3124 3126 3127 3127 3128 3128 3128 3128 3127 3127 3126 3126 3125 3125 3124 3123 3122 3121 3120 3119 3118 3116 3114 3113 3111 3109 3107 3106
3094 3096 3098 3100 3100 3101 3102 3103 3104 3106 3107 3108 3109 3109 3109 3110 3110 3110 3111 3111 3112 3112 3113 3114 3115 3115 3115 3115 3115 3115 3115 3117 3119 3120 3120 3120 3120 3119 3119 3118 3117 3117 3118 3118 3118 3118 3118 3117 3118 3118 3117 3119 3120 3119 3119 3121 3121 3121 3122 3123 3124 3125 3125 3125 3125 3124 3124 3123 3122 3122 3121 3120 3119 3118 3117 3116 3115 3114 3112 3110 3109 3107 3104 3102 3101
3096 3097 3099 3100 3101 3101 3102 3103 3104 3105 3105 3106 3107 3107 3108 3108 3108 3108 3108 3109 3109 3110 3110 3110 3111 3112 3112 3112 3112 3112 3112 3113 3114 3116 3116 3116 3115 3115 3115 3114 3113 3112 3111 3112 3112 3113 3112 3113 3114 3113 3113 3115 3115 3115 3115 3117 3117 3118 3119 3120 3121 3121 3122 3122 3122 3121 3121 3120 3119 3118 3117 3116 3115 3114 3113 3112 3111 3109 3108 3106 3105 3102 3100 3097 3095
3097 3097 3098 3099 3100 3100 3101 3102 3103 3103 3104 3105 3105 3106 3106 3107 3106 3106 3106 3106 3106 3106 3106 3107 3107 3108 3108 3108 3108 3108 3107 3108 3109 3110 3111 3111 3111 3110 3110 3110 3110 3108 3106 3106 3107 3107 3107 3107 3108 3109 3110 3111 3111 3111 3111 3113 3114 3115 3116 3117 3118 3118 3118 3118 3118 3117 3117 3116 3115 3114 3113 3112 3112 3111 3110 3108 3106 3105 3103 3101 3100 3098 3096 3093 3091
3095 3095 3096 3097 3097 3098 3099 3099 3100 3100 3102 3102 3103 3103 3103 3104 3104 3103 3103 3103 3102 3102 3102 3102 3102 3102 3103 3103 3103 3103 3103 3103 3104 3105 3106 3106 3106 3106 3105 3104 3105 3104 3102 3102 3102 3102 3102 3102 3102 3104 3106 3106 3106 3107 3108 3109 3110 3112 3113 3114 3114 3115 3115 3115 3114 3113 3113 3112 3111 3110 3109 3109 3108 3107 3106 3104 3102 3101 3099 3097 3096 3094 3092 3089 3087
3092 3092 3093 3094 3094 3095 3095 3096 3096 3097 3098 3099 3099 3099 3099 3099 3099 3099 3098 3098 3098 3098 3098 3097 3097 3097 3097 3097 3098 3098 3099 3099 3099 3100 3101 3101 3101 3101 3099 3098 3099 3099 3098 3097 3097 3097 3098 3097 3097 3099 3100 3101 3101 3103 3105 3106 3107 3108 3109 3109 3109 3110 3111 3111 3110 3109 3109 3108 3107 3106 3105 3105 3104 3103 3102 3100 3098 3097 3095 3092 3090 3088 3086 3083 3081
3088 3089 3089 3090 3091 3091 3092 3092 3092 3093 3094 3094 3094 3094 3094 3094 3094 3094 3094 3094 3093 3093 3093 3093 3093 3092 3092 3092 3091 3092 3094 3094 3094 3095 3096 3096 3096 3095 3093 3093 3093 3094 3094 3093 3092 3092 3093 3093 3092 3092 3094 3096 3097 3098 3100 3102 3104 3105 3105 3105 3104 3104 3105 3105 3106 3105 3104 3104 3103 3102 3102 3101 3100 3098 3096 3094 3092 3091 3089 3086 3084 3082 3080 3077 3075
3085 3085 3086 3087 3087 3088 3088 3088 3088 3088 3089 3089 3089 3089 3089 3089 3088 3088 3088 3088 3088 3088 3088 3088 3088 3088 3088 3087 3086 3086 3087 3088 3089 3090 3091 3091 3091 3090 3089 3089 3089 3089 3089 3088 3088 3087 3088 3088 3087 3087 3089 3091 3092 3094 3096 3098 3100 3101 3101 3101 3101 3101 3101 3101 3102 3102 3101 3100 3099 3099 3098 3097 3095 3093 3091 3089 3087 3086 3083 3081 3079 3077 3075 3072 3070
3081 3081 3082 3082 3082 3082 3082 3082 3083 3082 3082 3082 3082 3082 3082 3082 3082 3082 3082 3082 3082 3082 3083 3083 3083 3083 3083 3083 3083 3082 3081 3081 3083 3085 3086 3086 3086 3086 3085 3084 3085 3085 3084 3084 3083 3083 3082 3082 3083 3085 3086 3087 3089 3091 3093 3095 3096 3097 3097 3098 3098 3098 3098 3098 3098 3097 3097 3096 3095 3095 3094 3093 3092 3090 3087 3085 3083 3081 3079 3077 3075 3074 3072 3070 3068
3075 3076 3076 3076 3076 3076 3076 3076 3076 3076 3075 3075 3075 3075 3075 3075 3075 3076 3076 3076 3076 3076 3077 3077 3077 3077 3077 3077 3078 3078 3077 3075 3076 3079 3080 3081 3080 3081 3081 3080 3080 3081 3080 3080 3080 3079 3078 3078 3081 3083 3085 3086 3086 3087 3089 3091 3093 3094 3094 3095 3095 3095 3095 3095 3094 3094 3093 3093 3092 3091 3090 3089 3087 3085 3083 3081 3080 3077 3075 3073 3072 3071 3069 3067 3065
3069 3069 3069 3069 3069 3069 3069 3069 3068 3068 3068 3068 3068 3068 3068 3068 3068 3068 3068 3069 3069 3069 3070 3070 3071 3071 3071 3071 3072 3072 3072 3070 3070 3072 3074 3075 3075 3075 3075 3075 3076 3076 3076 3077 3077 3077 3076 3076 3078 3080 3083 3085 3085 3085 3086 3087 3089 3090 3091 3092 3092 3092 3092 3092 3091 3090 3090 3089 3089 3088 3086 3084 3082 3080 3078 3077 3075 3073 3071 3069 3067 3066 3064 3062 3060
3061 3062 3062 3061 3061 3061 3061 3061 3061 3061 3061 3061 3060 3060 3060 3059 3060 3060 3060 3060 3061 3061 3062 3062 3063 3063 3064 3065 3065 3065 3065 3064 3063 3064 3066 3068 3069 3070 3070 3070 3071 3072 3072 3073 3074 3074 3074 3074 3075 3077 3080 3083 3083 3083 3084 3085 3086 3087 3088 3089 3089 3089 3088 3088 3088 3087 3086 3086 3085 3083 3081 3080 3078 3076 3073 3072 3070 3069 3067 3065 3064 3062 3060 3058 3056
3055 3055 3055 3055 3055 3054 3054 3054 3054 3053 3053 3053 3052 3052 3052 3051 3051 3052 3052 3052 3053 3053 3053 3054 3054 3055 3056 3058 3058 3058 3058 3057 3057 3058 3060 3061 3063 3064 3064 3065 3066 3067 3068 3069 3070 3070 3070 3070 3071 3074 3077 3079 3080 3080 3081 3082 3083 3084 3084 3084 3085 3085 3085 3084 3084 3084 3083 3082 3080 3079 3077 3075 3073 3071 3069 3068 3067 3066 3064 3062 3060 3058 3056 3054 3052
3050 3050 3049 3049 3048 3048 3047 3047 3046 3046 3046 3045 3045 3044 3044 3044 3044 3044 3044 3044 3044 3044 3044 3045 3046 3047 3048 3048 3049 3050 3051 3051 3051 3053 3056 3057 3058 3058 3058 3058 3059 3061 3062 3064 3065 3065 3066 3067 3069 3071 3074 3075 3076 3077 3078 3078 3079 3079 3080 3080 3081 3081 3081 3081 3080 3080 3079 3078 3076 3074 3072 3071 3069 3067 3066 3065 3064 3063 3061 3059 3057 3055 3052 3050 3047
3046 3045 3044 3044 3043 3042 3042 3041 3040 3039 3039 3039 3038 3038 3037 3037 3037 3037 3037 3037 3036 3035 3036 3037 3038 3039 3039 3040 3042 3043 3044 3045 3046 3048 3051 3053 3053 3052 3052 3052 3053 3055 3057 3059 3060 3060 3061 3063 3066 3068 3070 3071 3072 3073 3074 3074 3075 3075 3076 3077 3077 3078 3078 3077 3076 3076 3074 3073 3071 3069 3068 3066 3066 3065 3064 3063 3061 3059 3058 3055 3053 3051 3048 3046 3043
3042 3041 3040 3039 3038 3037 3037 3036 3035 3034 3033 3033 3032 3032 3031 3030 3030 3030 3031 3030 3030 3029 3029 3030 3031 3032 3033 3034 3035 3037 3038 3039 3041 3042 3045 3047 3048 3048 3048 3049 3050 3050 3051 3053 3054 3055 3057 3059 3062 3064 3066 3067 3068 3069 3070 3071 3072 3073 3073 3073 3073 3073 3073 3073 3072 3071 3069 3067 3066 3064 3064 3064 3063 3062 3061 3060 3058 3057 3054 3052 3050 3048 3045 3043 3040
3038 3037 3036 3035 3034 3033 3032 3031 3030 3029 3028 3027 3026 3026 3025 3024 3024 3024 3024 3024 3023 3023 3023 3024 3025 3025 3026 3028 3029 3030 3032 3034 3036 3037 3038 3041 3043 3043 3044 3047 3048 3048 3047 3047 3048 3050 3053 3056 3058 3060 3062 3064 3065 3066 3067 3068 3069 3070 3071 3070 3070 3070 3069 3068 3067 3066 3064 3063 3062 3062 3062 3061 3060 3059 3058 3057 3056 3054 3052 3050 3047 3045 3042 3039 3036
3034 3033 3032 3031 3030 3029 3028 3027 3026 3025 3024 3023 3021 3020 3019 3018 3018 3017 3018 3017 3017 3016 3017 3018 3018 3019 3020 3021 3023 3024 3026 3029 3031 3032 3033 3035 3037 3038 3040 3042 3044 3045 3045 3044 3044 3046 3049 3052 3055 3057 3059 3060 3061 3063 3064 3065 3066 3066 3067 3067 3067 3067 3067 3065 3063 3062 3061 3060 3060 3059 3059 3058 3058 3057 3056 3055 3053 3051 3049 3047 3044 3041 3038 3036 3033
3031 3030 3028 3027 3026 3025 3024 3023 3022 3021 3020 3018 3017 3016 3015 3013 3012 3011 3011 3011 3010 3010 3010 3011 3012 3013 3014 3015 3016 3018 3020 3023 3025 3027 3029 3029 3031 3032 3034 3036 3038 3040 3041 3040 3040 3042 3046 3049 3051 3054 3056 3057 3058 3060 3061 3061 3062 3062 3062 3063 3063 3063 3063 3061 3060 3059 3058 3058 3057 3057 3056 3056 3055 3055 3053 3052 3050 3048 3046 3043 3041 3038 3035 3033 3030
3028 3027 3025 3024 3023 3022 3021 3019 3018 3017 3016 3015 3013 3012 3011 3009 3007 3005 3004 3004 3004 3004 3004 3004 3005 3007 3008 3009 3010 3012 3015 3018 3020 3022 3024 3025 3026 3027 3027 3029 3032 3035 3035 3035 3036 3039 3043 3045 3048 3051 3052 3053 3055 3057 3058 3058 3058 3059 3059 3059 3058 3058 3058 3057 3057 3056 3056 3055 3055 3054 3054 3054 3053 3052 3051 3049 3047 3045 3043 3041 3038 3036 3033 3030 3028
3025 3024 3022 3021 3020 3019 3018 3017 3015 3014 3013 3011 3010 3008 3007 3005 3003 3001 3000 2999 2998 2998 2998 2999 3000 3001 3002 3004 3005 3007 3010 3012 3014 3017 3020 3021 3023 3024 3023 3023 3026 3030 3030 3030 3033 3037 3040 3042 3045 3047 3049 3050 3052 3054 3054 3054 3055 3056 3056 3056 3055 3055 3054 3054 3054 3054 3053 3053 3052 3052 3052 3052 3051 3049 3048 3046 3044 3043 3041 3038 3036 3033 3031 3028 3026
3022 3021 3020 3018 3017 3016 3015 3014 3013 3012 3010 3008 3007 3005 3003 3001 3000 2998 2996 2995 2994 2993 2993 2994 2996 2997 2998 2999 3001 3003 3005 3008 3010 3012 3015 3016 3018 3021 3021 3021 3023 3025 3026 3028 3031 3034 3037 3039 3042 3043 3045 3048 3050 3051 3051 3051 3052 3052 3053 3053 3053 3052 3052 3051 3051 3051 3050 3050 3051 3051 3050 3049 3048 3046 3045 3044 3042 3041 3039 3037 3034 3032 3029 3026 3024
3019 3018 3017 3016 3015 3014 3012 3011 3010 3009 3007 3005 3003 3001 2999 2997 2996 2994 2992 2991 2990 2990 2990 2991 2994 2995 2996 2997 2999 3001 3003 3005 3007 3009 3011 3012 3014 3018 3021 3022 3022 3022 3023 3025 3028 3030 3033 3036 3038 3040 3043 3045 3046 3047 3047 3048 3048 3049 3050 3050 3050 3050 3049 3049 3049 3049 3049 3049 3049 3048 3047 3046 3045 3044 3043 3042 3041 3039 3037 3035 3033 3030 3027 3025 3022
3017 3016 3014 3013 3012 3011 3010 3009 3007 3006 3004 3001 2999 2997 2995 2993 2991 2990 2988 2987 2986 2987 2988 2990 2992 2994 2995 2996 2997 2999 3001 3003 3005 3007 3009 3010 3012 3014 3017 3020 3021 3020 3020 3022 3025 3028 3030 3033 3034 3037 3040 3041 3042 3043 3044 3045 3046 3047 3047 3047 3047 3047 3047 3046 3046 3047 3047 3046 3046 3045 3045 3044 3043 3042 3041 3040 3039 3037 3035 3033 3031 3029 3026 3024 3021
3015 3013 3012 3011 3010 3009 3008 3006 3005 3003 3001 2998 2996 2993 2991 2989 2988 2986 2985 2985 2985 2985 2987 2989 2990 2991 2992 2994 2996 2997 2999 3001 3004 3006 3008 3010 3012 3013 3013 3016 3019 3020 3020 3021 3023 3026 3028 3029 3031 3034 3037 3039 3039 3040 3041 3042 3043 3044 3045 3044 3044 3044 3044 3044 3044 3045 3045 3044 3044 3043 3042 3042 3041 3041 3040 3039 3037 3036 3034 3032 3030 3028 3025 3022 3020
3013 3012 3010 3009 3008 3007 3006 3004 3002 3000 2998 2995 2993 2990 2988 2987 2985 2985 2984 2984 2985 2986 2987 2989 2990 2990 2991 2993 2995 2996 2998 3001 3003 3005 3007 3008 3010 3012 3012 3014 3017 3019 3020 3021 3022 3023 3025 3027 3029 3031 3034 3035 3036 3036 3038 3040 3041 3041 3042 3041 3041 3042 3042 3042 3043 3043 3042 3041 3041 3041 3040 3040 3040 3039 3038 3037 3036 3034 3033 3031 3029 3027 3024 3021 3019
3012 3011 3009 3008 3007 3006 3004 3002 3000 2998 2995 2993 2990 2989 2987 2986 2986 2986 2986 2986 2987 2988 2988 2989 2990 2991 2991 2992 2994 2996 2998 2999 3002 3004 3005 3006 3008 3010 3011 3013 3014 3015 3017 3019 3021 3021 3023 3025 3027 3030 3032 3033 3033 3034 3036 3038 3038 3038 3039 3039 3039 3039 3040 3040 3041 3040 3039 3039 3038 3039 3039 3039 3038 3038 3037 3036 3035 3033 3032 3030 3028 3026 3023 3020 3017
3011 3010 3008 3007 3006 3004 3003 3001 2999 2996 2994 2991 2989 2988 2987 2987 2988 2988 2988 2988 2989 2989 2989 2990 2990 2991 2991 2993 2994 2996 2997 2998 3000 3002 3003 3004 3006 3007 3009 3011 3011 3011 3013 3016 3018 3019 3020 3023 3025 3028 3029 3031 3031 3033 3034 3035 3035 3036 3036 3037 3037 3038 3038 3039 3039 3038 3037 3036 3036 3037 3037 3037 3037 3036 3036 3034 3033 3032 3030 3028 3026 3025 3022 3019 3016
3011 3009 3007 3006 3005 3003 3001 2999 2997 2995 2993 2991 2989 2988 2988 2988 2989 2990 2989 2989 2989 2990 2990 2991 2991 2991 2992 2993 2994 2995 2996 2998 2999 3000 3001 3002 3003 3004 3006 3009 3010 3010 3011 3013 3014 3016 3018 3021 3023 3025 3027 3029 3030 3031 3032 3033 3033 3034 3034 3035 3036 3036 3037 3037 3037 3036 3035 3034 3034 3035 3035 3036 3035 3035 3034 3033 3032 3031 3029 3027 3026 3024 3021 3018 3016
3010 3008 3007 3005 3004 3002 3000 2998 2996 2994 2993 2991 2990 2990 2989 2989 2990 2990 2990 2989 2989 2990 2991 2991 2992 2992 2993 2994 2994 2995 2996 2996 2997 2998 2998 2999 3000 3001 3004 3007 3009 3009 3010 3012 3013 3015 3018 3020 3021 3024 3026 3027 3028 3029 3030 3031 3031 3031 3032 3033 3034 3035 3035 3035 3035 3034 3034 3033 3033 3034 3034 3034 3034 3034 3033 3032 3031 3030 3028 3027 3025 3023 3020 3018 3015
3010 3008 3006 3005 3003 3002 3000 2998 2996 2994 2993 2992 2992 2992 2992 2991 2991 2991 2990 2990 2990 2991 2992 2992 2992 2993 2993 2993 2994 2994 2995 2995 2995 2996 2996 2996 2997 2999 3002 3004 3007 3008 3010 3011 3013 3016 3017 3019 3021 3023 3024 3025 3026 3027 3028 3029 3029 3030 3031 3032 3032 3032 3033 3033 3033 3033 3032 3032 3032 3032 3032 3033 3033 3032 3032 3031 3030 3029 3027 3026 3024 3022 3020 3017 3015
3010 3008 3006 3004 3003 3002 3000 2998 2997 2995 2994 2993 2993 2993 2993 2993 2993 2992 2992 2991 2992 2992 2992 2992 2993 2993 2993 2993 2993 2993 2994 2994 2994 2994 2993 2994 2995 2998 3001 3003 3005 3007 3009 3011 3013 3015 3017 3018 3020 3022 3023 3024 3025 3026 3026 3027 3028 3028 3029 3029 3030 3030 3031 3031 3031 3031 3032 3032 3031 3031 3031 3031 3031 3031 3030 3030 3029 3028 3026 3025 3023 3021 3019 3017 3014
3010 3008 3006 3004 3003 3002 3000 2999 2998 2996 2995 2994 2994 2994 2994 2994 2993 2993 2992 2992 2992 2993 2993 2993 2993 2993 2993 2993 2993 2993 2993 2994 2993 2993 2993 2994 2995 2998 3001 3003 3005 3007 3009 3011 3013 3014 3016 3018 3019 3020 3021 3022 3023 3024 3024 3025 3026 3027 3027 3027 3028 3029 3029 3030 3030 3030 3031 3031 3030 3030 3030 3030 3030 3029 3029 3028 3027 3026 3025 3024 3022 3020 3018 3016 3014
3010 3008 3006 3005 3003 3002 3001 3000 2999 2998 2997 2996 2995 2995 2994 2994 2994 2993 2992 2992 2992 2993 2993 2993 2993 2993 2993 2993 2993 2993 2993 2994 2994 2994 2995 2996 2998 3000 3002 3004 3006 3007 3009 3011 3013 3014 3016 3018 3019 3019 3020 3021 3021 3022 3023 3024 3024 3025 3025 3026 3026 3027 3027 3028 3029 3030 3030 3030 3029 3029 3029 3029 3028 3028 3028 3027 3026 3025 3024 3023 3021 3020 3018 3016 3014
3010 3009 3007 3005 3004 3003 3002 3001 3000 2999 2998 2997 2996 2996 2995 2994 2994 2993 2993 2992 2992 2993 2993 2993 2993 2993 2993 2994 2993 2993 2994 2994 2995 2996 2998 2999 3001 3002 3004 3005 3007 3009 3010 3012 3014 3015 3015 3016 3017 3018 3018 3019 3019 3020 3021 3022 3022 3023 3024 3025 3025 3025 3026 3026 3027 3028 3029 3029 3028 3028 3028 3027 3027 3027 3027 3026 3025 3024 3023 3021 3020 3019 3017 3015 3014
3011 3009 3008 3006 3005 3003 3002 3001 3000 3000 2999 2998 2997 2997 2996 2995 2994 2994 2993 2992 2992 2993 2993 2993 2994 2994 2994 2994 2994 2994 2994 2995 2995 2997 2999 3001 3002 3004 3005 3006 3008 3009 3010 3011 3013 3013 3014 3014 3015 3016 3016 3017 3018 3019 3020 3020 3021 3022 3023 3024 3024 3024 3024 3025 3026 3027 3027 3027 3027 3027 3027 3026 3026 3026 3025 3025 3024 3023 3022 3021 3019 3018 3016 3015 3013
3011 3010 3008 3007 3005 3004 3003 3002 3001 3000 3000 2999 2998 2998 2997 2996 2995 2994 2993 2992 2992 2992 2992 2993 2994 2995 2995 2995 2995 2995 2996 2996 2997 2998 3000 3002 3003 3005 3006 3007 3008 3009 3010 3010 3011 3012 3012 3013 3014 3014 3015 3016 3017 3018 3019 3020 3021 3021 3022 3023 3023 3023 3023 3024 3024 3025 3026 3026 3026 3026 3025 3025 3025 3025 3024 3023 3023 3022 3021 3020 3019 3017 3016 3014 3012